GW5470 Weather Reports


time (UTC)temp
F
wind
direction
speed
knots
gust
knots
rain 1hr
in
rain 24hr
in
rain mn
in
humidity
%
barometer
mb
20260505102154 60 212 0.0 0.0 0.00 0.00 0.00 75 1009.9
20260505101653 59 211 0.0 0.0 0.00 0.00 0.00 76 1009.9
20260505101148 59 221 0.0 0.0 0.00 0.00 0.00 80 1009.6
20260505100644 59 220 0.0 0.9 0.00 0.00 0.00 80 1009.4
20260505100142 57 230 1.7 1.7 0.00 0.00 0.00 84 1009.5
20260505095637 57 213 0.0 0.0 0.00 0.00 0.00 85 1009.4
20260505095135 57 213 0.0 0.0 0.00 0.00 0.00 86 1009.4
20260505094631 57 212 0.0 0.0 0.00 0.00 0.00 85 1009.3
20260505094127 57 215 0.9 0.9 0.00 0.00 0.00 86 1009.5
20260505093624 57 215 0.0 0.0 0.00 0.00 0.00 85 1009.5
20260505093121 57 215 0.0 0.0 0.00 0.00 0.00 86 1009.4
20260505092618 57 215 0.0 0.0 0.00 0.00 0.00 85 1009.5
20260505092117 57 215 0.0 0.0 0.00 0.00 0.00 84 1009.3
20260505091613 58 215 0.0 0.0 0.00 0.00 0.00 83 1009.3
20260505091112 58 216 0.0 0.0 0.00 0.00 0.00 83 1009.3
20260505090609 58 216 0.0 0.0 0.00 0.00 0.00 82 1009.3
20260505090107 59 216 0.0 0.0 0.00 0.00 0.00 80 1009.2
20260505085604 59 215 0.0 0.0 0.00 0.00 0.00 80 1009.2
20260505085102 60 215 0.0 0.0 0.00 0.00 0.00 77 1009.3
20260505084600 60 222 0.0 0.0 0.00 0.00 0.00 78 1009.0
20260505084058 60 229 0.0 0.9 0.00 0.00 0.00 77 1009.0
20260505083555 60 228 0.0 0.0 0.00 0.00 0.00 77 1009.0
20260505083051 61 225 0.0 0.0 0.00 0.00 0.00 76 1009.0
20260505082547 60 208 0.0 0.0 0.00 0.00 0.00 76 1009.0
20260505082044 61 213 0.0 0.9 0.00 0.00 0.00 74 1008.6
20260505081541 59 219 0.0 0.0 0.00 0.00 0.00 77 1008.7
20260505081038 60 219 0.0 0.0 0.00 0.00 0.00 79 1008.8
20260505080534 60 205 0.0 0.0 0.00 0.00 0.00 77 1008.9
20260505080031 59 220 0.0 0.9 0.00 0.00 0.00 79 1008.6
20260505075527 59 229 0.0 0.0 0.00 0.00 0.00 80 1008.7
20260505075024 59 229 0.0 0.0 0.00 0.00 0.00 78 1008.7
20260505074521 60 227 1.7 1.7 0.00 0.00 0.00 77 1008.7
20260505074018 60 222 0.9 0.9 0.00 0.00 0.00 78 1008.5
20260505073515 60 203 0.9 0.9 0.00 0.00 0.00 76 1008.6
20260505073014 60 210 0.0 0.0 0.00 0.00 0.00 78 1008.8
20260505072509 60 224 0.9 1.7 0.00 0.00 0.00 78 1008.3
20260505072005 59 221 0.0 0.0 0.00 0.00 0.00 79 1008.5
20260505071501 58 203 0.0 0.9 0.00 0.00 0.00 81 1008.3
20260505070959 57 215 0.0 0.0 0.00 0.00 0.00 83 1008.4
20260505070456 58 224 1.7 1.7 0.00 0.00 0.00 83 1008.3
20260505065951 58 215 0.0 0.0 0.00 0.00 0.00 84 1008.3
20260505065448 58 217 0.0 0.0 0.00 0.00 0.00 82 1008.3
20260505064945 57 209 0.0 0.0 0.00 0.00 0.00 82 1008.2
20260505064442 56 213 0.0 0.0 0.00 0.00 0.00 88 1008.3
20260505063940 56 213 0.0 0.0 0.00 0.00 0.00 88 1008.3
20260505063436 57 214 0.0 0.0 0.00 0.00 0.00 88 1008.4
20260505062933 57 213 0.0 0.0 0.00 0.00 0.00 87 1008.3
20260505062430 57 214 0.0 0.0 0.00 0.00 0.00 87 1008.6
20260505061927 57 214 0.0 0.0 0.00 0.00 0.00 87 1008.5
20260505061425 58 222 0.9 0.9 0.00 0.00 0.00 85 1008.6
20260505060922 58 222 0.0 0.0 0.00 0.00 0.00 85 1008.6
20260505060419 59 221 0.0 0.0 0.00 0.00 0.00 83 1008.8
20260505055915 60 222 0.0 0.0 0.00 0.00 0.00 80 1008.8
20260505055412 59 225 0.0 0.0 0.00 0.00 0.00 83 1008.8
20260505054908 60 222 0.0 0.0 0.00 0.00 0.00 81 1008.8
20260505054406 59 220 0.0 0.9 0.00 0.00 0.00 82 1008.9
20260505053904 60 217 0.0 0.0 0.00 0.00 0.00 82 1008.9
20260505053401 59 211 0.0 0.0 0.00 0.00 0.00 81 1008.8
20260505052857 59 217 0.0 0.0 0.00 0.00 0.00 84 1009.0
20260505052354 57 223 0.0 0.0 0.00 0.00 0.00 92 1009.0
20260505051851 56 215 0.0 0.0 0.00 0.00 0.00 93 1008.9
20260505051348 55 215 0.0 0.0 0.00 0.00 0.00 95 1008.8
20260505050847 55 216 0.0 0.0 0.00 0.00 0.00 95 1008.8
20260505050345 55 215 0.0 0.0 0.00 0.00 0.00 96 1008.8
20260505041312 54 215 0.0 0.0 0.00 0.00 0.00 97 1008.5
20260505040809 54 215 0.0 0.0 0.00 0.00 0.00 97 1008.5
20260505040307 54 215 0.0 0.0 0.00 0.00 0.00 97 1008.7
20260505035803 54 215 0.0 0.0 0.00 0.00 0.00 97 1008.5
20260505035259 54 215 0.0 0.0 0.00 0.00 0.00 97 1008.5
20260505034756 54 215 0.0 0.0 0.00 0.00 0.00 97 1008.4
20260505034253 54 215 0.0 0.0 0.00 0.00 0.00 97 1008.4
20260505033750 54 216 0.0 0.0 0.00 0.00 0.00 97 1008.4
20260505033247 54 216 0.0 0.0 0.00 0.00 0.00 96 1008.5
20260505032745 54 215 0.0 0.0 0.00 0.00 0.00 96 1008.4
20260505032241 54 215 0.0 0.0 0.00 0.00 0.00 97 1008.6
20260505031739 54 215 0.0 0.0 0.00 0.00 0.00 97 1008.5
20260505031235 54 215 0.0 0.0 0.00 0.00 0.00 97 1008.4
20260505030732 54 215 0.0 0.0 0.00 0.00 0.00 97 1008.4
20260505030228 54 215 0.0 0.0 0.00 0.00 0.00 97 1008.4
20260505025724 54 215 0.0 0.0 0.00 0.00 0.00 97 1008.3
20260505025222 54 215 0.0 0.0 0.00 0.00 0.00 96 1008.5
20260505024720 53 215 0.0 0.0 0.00 0.00 0.00 96 1008.5
20260505024217 53 216 0.0 0.0 0.00 0.00 0.00 96 1008.3
20260505023714 53 215 0.0 0.0 0.00 0.00 0.00 96 1008.3
20260505023211 53 216 0.0 0.0 0.00 0.00 0.00 96 1008.3
20260505022709 53 216 0.0 0.0 0.00 0.00 0.00 96 1008.4
20260505022205 53 216 0.0 0.0 0.00 0.00 0.00 95 1008.3
20260505021702 53 215 0.0 0.0 0.00 0.00 0.00 95 1008.2
20260505021159 54 216 0.0 0.0 0.00 0.00 0.00 95 1008.2
20260505020655 54 215 0.0 0.0 0.00 0.00 0.00 95 1008.3
20260505020151 54 215 0.0 0.0 0.00 0.00 0.00 95 1008.1
20260505015648 54 215 0.0 0.0 0.00 0.00 0.00 94 1008.0
20260505015144 55 215 0.0 0.0 0.00 0.00 0.00 94 1008.1
20260505014641 55 215 0.0 0.0 0.00 0.00 0.00 94 1008.3
20260505014139 55 215 0.0 0.0 0.00 0.00 0.00 94 1008.2
20260505013636 55 215 0.0 0.0 0.00 0.00 0.00 94 1008.1
20260505013133 55 215 0.0 0.0 0.00 0.00 0.00 94 1008.1
20260505012631 55 215 0.0 0.0 0.00 0.00 0.00 93 1008.1
20260505012128 55 215 0.0 0.0 0.00 0.00 0.00 93 1008.0
20260505011623 56 215 0.0 0.0 0.00 0.00 0.00 93 1008.0
20260505011121 56 215 0.0 0.0 0.00 0.00 0.00 92 1008.0
20260505010616 57 215 0.0 0.0 0.00 0.00 0.00 91 1008.1
20260505010113 57 215 0.0 0.0 0.00 0.00 0.00 90 1008.0
20260505005609 57 215 0.0 0.0 0.00 0.00 0.00 90 1007.9
20260505005107 58 215 0.0 0.0 0.00 0.00 0.00 89 1007.8
20260505004604 58 215 0.0 0.0 0.00 0.00 0.00 88 1007.8
20260505004100 59 215 0.0 0.0 0.00 0.00 0.00 85 1007.9
20260505003558 59 215 0.0 0.0 0.00 0.00 0.00 85 1007.5
20260505003055 60 215 0.0 0.0 0.00 0.00 0.00 86 1007.9
20260505002555 61 215 0.0 0.0 0.00 0.00 0.00 81 1007.8
20260505002054 62 215 0.0 0.0 0.00 0.00 0.00 81 1008.0
20260505001551 62 215 0.0 0.0 0.00 0.00 0.00 78 1007.9
20260505001048 63 215 0.0 0.0 0.00 0.00 0.00 75 1007.8
20260505000546 63 215 0.0 0.0 0.00 0.00 0.00 75 1008.0
20260505000043 64 215 0.0 0.0 0.00 0.00 0.00 73 1007.9
20260504235540 65 215 0.0 0.0 0.00 0.00 0.00 73 1008.1
20260504235037 66 215 0.0 0.0 0.00 0.00 0.00 70 1008.0
20260504234534 66 215 0.0 0.0 0.00 0.00 0.00 68 1008.0
20260504234031 67 215 0.0 0.0 0.00 0.00 0.00 65 1008.0
20260504233526 68 224 0.0 0.0 0.00 0.00 0.00 63 1008.1
20260504233023 68 224 0.0 0.0 0.00 0.00 0.00 60 1008.2
20260504232520 69 223 0.0 0.0 0.00 0.00 0.00 60 1008.3
20260504232018 70 223 0.0 0.0 0.00 0.00 0.00 59 1008.2
20260504231514 70 217 0.0 0.0 0.00 0.00 0.00 57 1008.1
20260504231010 70 221 0.0 0.0 0.00 0.00 0.00 59 1008.3
20260504230507 70 213 0.9 0.9 0.00 0.00 0.00 57 1008.2
20260504230006 71 205 0.0 0.0 0.00 0.00 0.00 56 1008.5
20260504225502 71 221 0.9 1.7 0.00 0.00 0.00 54 1008.5
20260504224959 72 239 1.7 1.7 0.00 0.00 0.00 51 1008.6
20260504224456 73 211 0.9 1.7 0.00 0.00 0.00 52 1008.5
20260504223953 73 215 0.9 0.9 0.00 0.00 0.00 51 1008.5
20260504223449 73 200 0.9 0.9 0.00 0.00 0.00 51 1008.8
20260504222945 73 194 1.7 2.6 0.00 0.00 0.00 51 1008.8
20260504222443 73 217 0.9 0.9 0.00 0.00 0.00 52 1008.8
20260504221940 73 196 1.7 1.7 0.00 0.00 0.00 52 1009.0
20260504221437 73 198 1.7 1.7 0.00 0.00 0.00 50 1008.9
20260504220934 73 206 0.9 0.9 0.00 0.00 0.00 53 1008.7
20260504220430 73 166 5.2 7.0 0.00 0.00 0.00 49 1008.9
20260504215928 74 190 2.6 3.5 0.00 0.00 0.00 48 1009.0
20260504215424 74 224 3.5 3.5 0.00 0.00 0.00 48 1008.8
20260504214921 74 218 1.7 3.5 0.00 0.00 0.00 47 1008.9
20260504214417 74 233 0.9 0.9 0.00 0.00 0.00 49 1009.0
20260504213914 72 212 0.9 0.9 0.00 0.00 0.00 52 1009.1
20260504213410 72 212 0.0 0.9 0.00 0.00 0.00 52 1009.3
20260504212908 71 210 1.7 1.7 0.00 0.00 0.00 52 1009.2
20260504212403 72 172 2.6 3.5 0.00 0.00 0.00 52 1009.5
20260504211901 72 319 4.3 6.1 0.00 0.00 0.00 50 1009.4
20260504211357 72 233 0.9 1.7 0.00 0.00 0.00 53 1009.5
20260504210855 72 202 1.7 1.7 0.00 0.00 0.00 51 1009.4
20260504210351 72 193 1.7 1.7 0.00 0.00 0.00 51 1009.3
20260504205848 72 200 1.7 1.7 0.00 0.00 0.00 52 1009.8
20260504205346 72 351 2.6 3.5 0.00 0.00 0.00 50 1009.8
20260504204844 72 197 2.6 2.6 0.00 0.00 0.00 51 1009.5
20260504204342 71 215 0.9 1.7 0.00 0.00 0.00 51 1009.6
20260504203842 71 206 1.7 3.5 0.00 0.00 0.00 52 1009.6
20260504203338 71 186 0.9 1.7 0.00 0.00 0.00 52 1009.5
20260504202833 71 198 1.7 1.7 0.00 0.00 0.00 52 1009.4
20260504202331 71 206 2.6 3.5 0.00 0.00 0.00 53 1009.3
20260504201827 71 189 2.6 3.5 0.00 0.00 0.00 51 1009.6
20260504201325 71 160 1.7 1.7 0.00 0.00 0.00 51 1009.6
20260504200822 72 204 2.6 2.6 0.00 0.00 0.00 51 1009.8
20260504200319 72 195 0.9 1.7 0.00 0.00 0.00 50 1009.8
20260504195815 72 151 1.7 3.5 0.00 0.00 0.00 49 1009.8
20260504195311 73 185 2.6 3.5 0.00 0.00 0.00 48 1009.8
20260504194808 74 225 1.7 2.6 0.00 0.00 0.00 47 1009.4
20260504194304 73 223 0.9 0.9 0.00 0.00 0.00 48 1009.3
20260504193800 75 212 0.9 0.9 0.00 0.00 0.00 47 1009.2
20260504193258 72 207 1.7 1.7 0.00 0.00 0.00 53 1009.4
20260504192756 72 199 2.6 2.6 0.00 0.00 0.00 52 1009.4
20260504192254 72 204 1.7 1.7 0.00 0.00 0.00 53 1009.6
20260504191752 71 200 2.6 3.5 0.00 0.00 0.00 55 1009.6
20260504191249 69 199 1.7 1.7 0.00 0.00 0.00 56 1009.9
20260504190744 69 203 2.6 2.6 0.00 0.00 0.00 55 1009.9
20260504190241 69 193 1.7 1.7 0.00 0.00 0.00 54 1009.8
20260504185737 69 214 1.7 1.7 0.00 0.00 0.00 55 1009.9
20260504185235 69 211 1.7 1.7 0.00 0.00 0.00 54 1009.9
20260504184731 70 188 2.6 2.6 0.00 0.00 0.00 54 1009.9
20260504184227 70 213 0.9 0.9 0.00 0.00 0.00 53 1010.1
20260504183723 70 160 0.9 0.9 0.00 0.00 0.00 53 1010.3
20260504183220 70 209 1.7 2.6 0.00 0.00 0.00 54 1010.3
20260504182718 70 207 1.7 1.7 0.00 0.00 0.00 53 1010.1
20260504182215 71 204 1.7 2.6 0.00 0.00 0.00 52 1010.3
20260504181712 71 191 0.9 1.7 0.00 0.00 0.00 49 1010.2
20260504181210 71 203 1.7 2.6 0.00 0.00 0.00 50 1010.2
20260504180709 71 219 3.5 5.2 0.00 0.00 0.00 49 1010.1
20260504180207 71 216 1.7 1.7 0.00 0.00 0.00 50 1010.2
20260504175704 72 194 4.3 6.1 0.00 0.00 0.00 48 1010.1
20260504175200 72 236 0.9 0.9 0.00 0.00 0.00 53 1010.3
20260504174658 71 222 1.7 2.6 0.00 0.00 0.00 49 1010.2
20260504174155 72 174 5.2 7.8 0.00 0.00 0.00 48 1010.2
20260504173652 71 241 3.5 5.2 0.00 0.00 0.00 50 1010.3
20260504173149 71 214 1.7 1.7 0.00 0.00 0.00 53 1010.3
20260504172646 71 198 2.6 3.5 0.00 0.00 0.00 51 1010.3
20260504172142 71 179 4.3 6.1 0.00 0.00 0.00 51 1010.1
20260504171639 71 157 5.2 6.1 0.00 0.00 0.00 52 1010.4
20260504171136 71 203 2.6 2.6 0.00 0.00 0.00 53 1010.4
20260504170632 71 197 1.7 2.6 0.00 0.00 0.00 52 1010.4
20260504170130 71 216 1.7 1.7 0.00 0.00 0.00 50 1010.4
20260504151021 64 176 2.6 5.2 0.00 0.00 0.00 57 1011.9
20260504150519 63 227 2.6 3.5 0.00 0.00 0.00 57 1011.8
20260504140945 61 250 1.7 2.6 0.00 0.00 0.00 57 1012.7
20260504140441 61 187 1.7 2.6 0.00 0.00 0.00 60 1012.4
20260504130406 58 197 1.7 2.6 0.00 0.00 0.00 59 1012.4
20260504110253 40 215 0.0 0.0 0.00 0.00 0.00 97 1012.3